Location: Newark
(11.6000°N, 43.1667°E)
Time: 02:01:11
(UTC+00:00)

Envisat - Pass Details

Date: 23 September 2019
Orbit: 764 x 766 km, 98.1° (Epoch: 22 October)

Event Time Altitude Azimuth Distance (km) Brightness Sun altitude
Rises 15:41:26 0° 171° (S) 3,220 6.1 -10.2°
Reaches altitude 10° 15:43:44 10° 172° (S) 2,294 5.4 -10.8°
Maximum altitude 15:48:47 76° 258° (WSW) 787 3.2 -12.0°
Drops below altitude 10° 15:53:50 10° 344° (NNW) 2,294 5.7 -13.3°
Sets 15:56:08 0° 346° (NNW) 3,219 6.5 -13.8°
